Regional Weather Roundup
Issued by NWS

Home | Current Version | Previous Version | Graphics & Text | Print | Product List | Glossary On
Versions: 1 2 3 4 5 6 7 8 9 10 11 12 13 14 15 16 17 18 19 20 21 22 23 24 25 26 27 28 29 30 31 32 33 34 35 36 37 38 39 40 41 42 43 44 45 46 47 48 49 50
000
ASUS43 KOAX 061202
RWRNE

WEATHER ROUNDUP FOR NEBRASKA
NATIONAL WEATHER SERVICE OMAHA NE
700 AM CDT WED MAY 06 2015

NOTES: SATELLITE DATA IS BEING USED TO AUGMENT CLOUD COVER ABOVE
       12000 FEET.
       "FAIR" INDICATES FEW OR NO CLOUDS BELOW 12,000 FEET WITH NO
       SIGNIFICANT WEATHER AND/OR OBSTRUCTIONS TO VISIBILITY.

  * THESE STATIONS DO NOT REPORT WEATHER SUCH AS RAIN...SNOW OR FOG.

NEZ001>004-019>022-054>056-061300-
NEBRASKA PANHANDLE

CITY           SKY/WX    TMP DP  RH WIND       PRES   REMARKS
SCOTTSBLUFF    CLOUDY    54  53  97 E6        29.68S
6HR MIN TEMP:  52; 6HR MAX TEMP:  54; 6HR PCP:  0.12;

ALLIANCE       CLOUDY    53  51  93 SE17      29.69R
6HR MIN TEMP:  52; 6HR MAX TEMP:  54;

CHADRON        LGT RAIN  53  52  96 NE6       29.69F FOG
6HR MIN TEMP:  53; 6HR MAX TEMP:  55; 6HR PCP:  0.25;

SIDNEY         FOG       50  50 100 SE14      29.67F VSB 1/2
6HR MIN TEMP:  50; 6HR MAX TEMP:  53; 6HR PCP:  0.02;

$$

NEZ057>060-069>072-079>082-061300-
SOUTHWEST NEBRASKA

CITY           SKY/WX    TMP DP  RH WIND       PRES   REMARKS
NORTH PLATTE   LGT RAIN  58  56  93 SE8       29.72S
6HR MIN TEMP:  58; 6HR MAX TEMP:  59; 6HR PCP:  0.19;

IMPERIAL       CLOUDY    53  50  89 SE10      29.70S
6HR MIN TEMP:  52; 6HR MAX TEMP:  57;

MCCOOK         CLOUDY    60  58  92 S8        29.71F
6HR MIN TEMP:  60; 6HR MAX TEMP:  61; 6HR PCP:  0.05;

$$

NEZ005>010-023>029-035>040-094-061300-
NORTH CENTRAL NEBRASKA

CITY           SKY/WX    TMP DP  RH WIND       PRES   REMARKS
VALENTINE      CLOUDY    58  56  93 SE14      29.75S
6HR MIN TEMP:  57; 6HR MAX TEMP:  58; 6HR PCP:  0.01;

BROKEN BOW     LGT RAIN  60  58  92 SE14      29.75F
6HR MIN TEMP:  58; 6HR MAX TEMP:  61; 6HR PCP:  0.01;

ORD            CLOUDY    60  57  89 SE8       29.77F
6HR MIN TEMP:  58; 6HR MAX TEMP:  61; 6HR PCP:  0.05;

$$

NEZ041-046>049-061>064-073>077-083>087-061300-
SOUTH CENTRAL NEBRASKA

CITY           SKY/WX    TMP DP  RH WIND       PRES   REMARKS
GRAND ISLAND   CLOUDY    61  57  87 SE9G17    29.79F
6HR MIN TEMP:  60; 6HR MAX TEMP:  62; 6HR PCP:  0.01;

HASTINGS       CLOUDY    60  57  89 SE13      29.77F
6HR MIN TEMP:  60; 6HR MAX TEMP:  61; 6HR PCP:  0.02;

KEARNEY *      CLOUDY    61  57  88 SE14      29.76F
$$

NEZ011>018-030>034-042>045-061300-
NORTHEAST NEBRASKA

CITY           SKY/WX    TMP DP  RH WIND       PRES   REMARKS
NORFOLK        LGT RAIN  62  60  93 SE13      29.84S
6HR MIN TEMP:  61; 6HR MAX TEMP:  63; 6HR PCP:  0.04;

COLUMBUS *     CLOUDY    61  55  82 E10       29.83F
TEKAMAH        LGT RAIN  63  60  90 SE13      29.89S
6HR MIN TEMP:  63; 6HR MAX TEMP:  67; 6HR PCP: TRACE;

$$

NEZ050>053-065>068-078-088>093-061300-
SOUTHEAST NEBRASKA

CITY           SKY/WX    TMP DP  RH WIND       PRES   REMARKS
LINCOLN        LGT RAIN  63  60  90 SE18G28   29.82F
6HR MIN TEMP:  63; 6HR MAX TEMP:  65; 6HR PCP:  0.08;

OMAHA EPPLEY   LGT RAIN  64  60  87 SE14      29.89S
6HR MIN TEMP:  63; 6HR MAX TEMP:  68; 6HR PCP:  0.02;

FALLS CITY     CLOUDY    64  58  80 SE12      29.87F
6HR MIN TEMP:  62; 6HR MAX TEMP:  64; 6HR PCP:  0.16;

$$

NEZ044-045-051>053-067-061300-
OMAHA AREA

CITY           SKY/WX    TMP DP  RH WIND       PRES   REMARKS
OMAHA EPPLEY   LGT RAIN  64  60  87 SE14      29.89S
6HR MIN TEMP:  63; 6HR MAX TEMP:  68; 6HR PCP:  0.02;

OFFUTT AFB     LGT RAIN  63  61  94 E15       29.88F
$$



USA.gov is the U.S. government's official web portal to all federal, state and local government web resources and services.